Simultaneous Nadir Overpasses (SNOs) Predictions

Prediction of SNOs between METOP-B and NOAA-19 Satellite Orbit:

Table of predicted SNOs for the next 14.0 days since TLE Epoch: 9/23/2023
Index Date (METOP-B) Time (METOP-B) Lat,Lon (METOP-B) SZA (METOP-B ) Date (NOAA-19) Time (NOAA-19) Lat,Lon (NOAA-19) SZA (NOAA-19 ) Distance(km) Time Diff (sec)
1 09/24/2023 10:56:06 -80.80,-132.39 97.24 09/24/2023 10:54:52 -80.80,-132.39 97.27 0.19 74
2 09/24/2023 11:46:47 80.80, 34.78 82.76 09/24/2023 11:45:47 80.80, 34.89 82.75 2.20 60
3 09/24/2023 12:37:27 -80.82,-157.54 97.19 09/24/2023 12:36:50 -80.81,-157.59 97.21 1.02 37
4 09/24/2023 13:28:08 80.81, 9.64 82.81 09/24/2023 13:27:45 80.81, 9.70 82.81 1.28 23
5 09/24/2023 14:18:48 -80.83, 177.32 97.13 09/24/2023 14:18:48 -80.82, 177.22 97.15 1.99 0
6 09/24/2023 15:09:29 80.82, -15.51 82.87 09/24/2023 15:09:43 80.82, -15.49 82.88 0.38 14
7 09/24/2023 16:00:09 -80.84, 152.18 97.08 09/24/2023 16:00:46 -80.83, 152.02 97.08 2.98 37
8 09/24/2023 16:50:50 80.83, -40.65 82.92 09/24/2023 16:51:41 80.83, -40.68 82.94 0.57 51
9 09/24/2023 17:41:31 -80.83, 126.68 97.07 09/24/2023 17:42:44 -80.84, 126.83 97.02 2.65 73
10 10/06/2023 00:49:35 80.79,-161.06 87.28 10/06/2023 00:48:29 80.78,-161.19 87.24 2.54 66
11 10/06/2023 01:40:16 -80.80, 6.36 92.69 10/06/2023 01:39:30 -80.79, 6.24 92.73 2.33 46
12 10/06/2023 02:30:57 80.78, 173.44 87.29 10/06/2023 02:30:27 80.79, 173.60 87.30 3.14 30
13 10/06/2023 03:21:38 -80.79, -19.14 92.69 10/06/2023 03:21:28 -80.80, -18.97 92.67 3.23 10
14 10/06/2023 04:12:18 80.79, 148.28 87.34 10/06/2023 04:12:25 80.80, 148.40 87.36 2.19 7
15 10/06/2023 05:02:59 -80.80, -44.29 92.64 10/06/2023 05:03:26 -80.80, -44.18 92.61 2.18 27
16 10/06/2023 05:53:39 80.80, 123.13 87.40 10/06/2023 05:54:23 80.81, 123.19 87.42 1.24 44



Historial Predications of SNOs between METOP-B and NOAA-19
